Time,TemperatureF,DewpointF,PressureIn,WindDirection,WindDirectionDegrees,WindSpeedMPH,WindSpeedGustMPH,Humidity,HourlyPrecipIn,Conditions,Clouds,dailyrainin,SoftwareType,DateUTC
2013-08-22 00:02:00,67.5,67.1,29.02,NW,315,0.0,2.0,99,0.00,,,0.00,meteohub,2013-08-22 10:02:00,
2013-08-22 00:07:00,67.3,66.9,29.02,NW,315,0.0,0.0,99,0.00,,,0.00,meteohub,2013-08-22 10:07:00,
2013-08-22 00:12:00,67.1,66.7,29.02,NW,315,1.0,2.0,99,0.00,,,0.00,meteohub,2013-08-22 10:12:00,
2013-08-22 00:17:00,66.9,66.6,29.02,NW,315,0.0,2.0,99,0.00,,,0.00,meteohub,2013-08-22 10:17:00,
2013-08-22 00:22:00,66.9,66.6,29.01,NW,315,0.0,2.0,99,0.00,,,0.00,meteohub,2013-08-22 10:22:00,
2013-08-22 00:27:00,66.7,66.4,29.02,NW,315,0.0,2.0,99,0.00,,,0.00,meteohub,2013-08-22 10:27:00,
2013-08-22 00:32:00,66.9,66.6,29.02,NW,315,1.0,0.0,99,0.00,,,0.00,meteohub,2013-08-22 10:32:00,
2013-08-22 00:37:00,67.1,66.7,29.02,NW,315,0.0,1.0,99,0.00,,,0.00,meteohub,2013-08-22 10:37:00,
2013-08-22 00:42:00,67.5,67.1,29.01,NW,315,2.0,2.0,99,0.00,,,0.00,meteohub,2013-08-22 10:42:00,
2013-08-22 00:47:00,67.8,67.5,29.02,NW,315,0.0,2.0,99,0.00,,,0.00,meteohub,2013-08-22 10:47:00,
2013-08-22 02:27:00,67.8,67.5,29.00,NW,315,0.0,0.0,99,0.00,,,0.00,meteohub,2013-08-22 12:27:00,
2013-08-22 02:32:00,67.8,67.5,29.00,NW,315,0.0,0.0,99,0.00,,,0.00,meteohub,2013-08-22 12:32:00,
2013-08-22 02:37:00,67.8,67.5,29.00,NW,315,0.0,0.0,99,0.00,,,0.00,meteohub,2013-08-22 12:37:00,
2013-08-22 02:42:00,68.0,67.6,29.00,NW,315,0.0,0.0,99,0.00,,,0.00,meteohub,2013-08-22 12:42:00,
2013-08-22 02:47:00,68.0,67.6,29.00,NW,315,0.0,0.0,99,0.00,,,0.00,meteohub,2013-08-22 12:47:00,
2013-08-22 02:52:00,68.2,67.8,29.00,NW,315,0.0,0.0,99,0.00,,,0.00,meteohub,2013-08-22 12:52:00,
2013-08-22 02:57:00,68.4,68.0,28.99,NW,315,1.0,2.0,99,0.00,,,0.00,meteohub,2013-08-22 12:57:00,
2013-08-22 03:00:00,68.4,68.0,28.99,NW,315,1.0,2.0,99,0.00,,,0.00,meteohub,2013-08-22 13:00:00,
2013-08-22 03:05:00,68.5,68.2,28.99,NW,315,0.0,2.0,99,0.00,,,0.00,meteohub,2013-08-22 13:05:00,
2013-08-22 03:10:00,68.5,68.2,28.99,NW,315,2.0,2.0,99,0.00,,,0.00,meteohub,2013-08-22 13:10:00,
2013-08-22 03:15:00,68.5,68.2,28.99,NW,315,1.0,2.0,99,0.00,,,0.00,meteohub,2013-08-22 13:15:00,
2013-08-22 03:20:00,68.5,68.2,28.99,NW,315,0.0,2.0,99,0.00,,,0.00,meteohub,2013-08-22 13:20:00,
2013-08-22 03:25:00,68.4,68.0,28.98,NW,315,0.0,2.0,99,0.00,,,0.00,meteohub,2013-08-22 13:25:00,
2013-08-22 03:30:00,68.4,68.0,28.99,NW,315,0.0,1.0,99,0.00,,,0.00,meteohub,2013-08-22 13:30:00,
2013-08-22 03:35:00,68.4,68.0,28.99,NW,315,0.0,1.0,99,0.00,,,0.00,meteohub,2013-08-22 13:35:00,
2013-08-22 03:40:00,68.4,68.0,28.99,NW,315,0.0,1.0,99,0.00,,,0.00,meteohub,2013-08-22 13:40:00,
2013-08-22 03:45:00,68.7,68.4,28.99,NW,315,0.0,2.0,99,0.00,,,0.00,meteohub,2013-08-22 13:45:00,
2013-08-22 03:50:00,68.7,68.4,28.99,NW,315,2.0,2.0,99,0.00,,,0.00,meteohub,2013-08-22 13:50:00,
2013-08-22 03:55:00,68.7,68.4,28.99,NW,315,1.0,2.0,99,0.00,,,0.00,meteohub,2013-08-22 13:55:00,
2013-08-22 04:00:00,68.9,68.5,28.99,NW,315,0.0,2.0,99,0.00,,,0.00,meteohub,2013-08-22 14:00:00,
2013-08-22 04:05:00,69.1,68.7,28.99,NW,315,0.0,2.0,99,0.00,,,0.00,meteohub,2013-08-22 14:05:00,
2013-08-22 04:10:00,69.3,68.9,28.99,NW,315,0.0,2.0,99,0.00,,,0.00,meteohub,2013-08-22 14:10:00,
2013-08-22 04:15:00,69.3,68.9,29.00,NW,315,0.0,2.0,99,0.00,,,0.00,meteohub,2013-08-22 14:15:00,
2013-08-22 04:21:00,69.3,68.9,29.00,NW,315,0.0,0.0,99,0.00,,,0.00,meteohub,2013-08-22 14:21:00,
2013-08-22 04:26:00,69.1,68.7,29.00,NW,315,1.0,0.0,99,0.00,,,0.00,meteohub,2013-08-22 14:26:00,
2013-08-22 04:31:00,69.1,68.7,29.00,NW,315,1.0,1.0,99,0.00,,,0.00,meteohub,2013-08-22 14:31:00,
2013-08-22 04:36:00,69.1,68.7,29.00,NW,315,1.0,1.0,99,0.00,,,0.00,meteohub,2013-08-22 14:36:00,
2013-08-22 04:41:00,69.1,68.7,29.00,NW,315,2.0,2.0,99,0.00,,,0.00,meteohub,2013-08-22 14:41:00,
2013-08-22 04:46:00,69.3,68.9,29.00,NW,315,1.0,2.0,99,0.00,,,0.00,meteohub,2013-08-22 14:46:00,
2013-08-22 04:51:00,69.3,68.7,29.00,NW,315,0.0,2.0,98,0.00,,,0.00,meteohub,2013-08-22 14:51:00,
2013-08-22 04:56:00,69.3,68.7,28.99,NW,315,0.0,2.0,98,0.00,,,0.00,meteohub,2013-08-22 14:56:00,
2013-08-22 05:01:00,69.4,68.5,28.99,NW,315,0.0,2.0,97,0.00,,,0.00,meteohub,2013-08-22 15:01:00,
2013-08-22 05:06:00,69.4,68.5,29.00,NW,315,0.0,2.0,97,0.00,,,0.00,meteohub,2013-08-22 15:06:00,
2013-08-22 05:11:00,69.4,68.5,29.00,NW,315,1.0,2.0,97,0.00,,,0.00,meteohub,2013-08-22 15:11:00,
2013-08-22 05:16:00,69.4,68.2,29.00,NW,315,2.0,2.0,96,0.00,,,0.00,meteohub,2013-08-22 15:16:00,
2013-08-22 05:21:00,69.4,68.2,29.00,NW,315,3.0,3.0,96,0.00,,,0.00,meteohub,2013-08-22 15:21:00,
2013-08-22 05:26:00,69.6,68.4,29.00,NW,315,2.0,3.0,96,0.00,,,0.00,meteohub,2013-08-22 15:26:00,
2013-08-22 05:31:00,69.6,68.2,29.00,NW,315,1.0,3.0,95,0.00,,,0.00,meteohub,2013-08-22 15:31:00,
2013-08-22 05:36:00,69.4,68.0,29.00,NW,315,2.0,3.0,95,0.00,,,0.00,meteohub,2013-08-22 15:36:00,
2013-08-22 05:41:00,69.4,68.0,29.00,NW,315,0.0,2.0,95,0.00,,,0.00,meteohub,2013-08-22 15:41:00,
2013-08-22 05:46:00,69.4,68.0,29.00,NW,315,1.0,2.0,95,0.00,,,0.00,meteohub,2013-08-22 15:46:00,
2013-08-22 05:51:00,69.4,68.0,29.00,NW,315,1.0,2.0,95,0.00,,,0.00,meteohub,2013-08-22 15:51:00,
2013-08-22 05:56:00,69.3,67.8,29.00,NW,315,0.0,2.0,95,0.00,,,0.00,meteohub,2013-08-22 15:56:00,
2013-08-22 06:01:00,69.3,67.8,29.00,East,90,2.0,2.0,95,0.00,,,0.00,meteohub,2013-08-22 16:01:00,
2013-08-22 06:06:00,69.4,67.3,29.00,East,90,5.0,5.0,93,0.00,,,0.00,meteohub,2013-08-22 16:06:00,
2013-08-22 06:11:00,69.8,67.3,29.00,East,90,2.0,5.0,92,0.00,,,0.00,meteohub,2013-08-22 16:11:00,
2013-08-22 06:16:00,69.8,67.1,29.00,East,90,1.0,5.0,91,0.00,,,0.00,meteohub,2013-08-22 16:16:00,
2013-08-22 06:21:00,70.0,66.9,29.01,NW,315,1.0,5.0,90,0.00,,,0.00,meteohub,2013-08-22 16:21:00,
2013-08-22 06:26:00,70.0,66.9,29.01,NW,315,0.0,3.0,90,0.00,,,0.00,meteohub,2013-08-22 16:26:00,
2013-08-22 06:31:00,70.0,67.3,29.01,NW,315,0.0,3.0,91,0.00,,,0.00,meteohub,2013-08-22 16:31:00,
2013-08-22 06:36:00,70.0,67.5,29.01,NW,315,0.0,2.0,92,0.00,,,0.00,meteohub,2013-08-22 16:36:00,
2013-08-22 06:41:00,70.0,67.8,29.01,NW,315,0.0,0.0,93,0.00,,,0.00,meteohub,2013-08-22 16:41:00,
2013-08-22 06:46:00,70.2,68.9,29.01,NW,315,0.0,0.0,96,0.00,,,0.00,meteohub,2013-08-22 16:46:00,
2013-08-22 06:51:00,70.2,68.9,29.01,NW,315,0.0,0.0,96,0.00,,,0.00,meteohub,2013-08-22 16:51:00,
2013-08-22 06:56:00,70.3,69.4,29.01,NW,315,0.0,0.0,97,0.00,,,0.00,meteohub,2013-08-22 16:56:00,
2013-08-22 07:01:00,70.5,69.6,29.00,NW,315,0.0,0.0,97,0.00,,,0.00,meteohub,2013-08-22 17:01:00,
2013-08-22 07:06:00,70.5,70.0,29.01,NW,315,0.0,0.0,98,0.00,,,0.00,meteohub,2013-08-22 17:06:00,
2013-08-22 07:11:00,70.5,70.0,29.01,NW,315,0.0,0.0,98,0.00,,,0.00,meteohub,2013-08-22 17:11:00,
2013-08-22 07:16:00,71.6,71.2,29.02,NW,315,0.0,0.0,99,0.00,,,0.00,meteohub,2013-08-22 17:16:00,
2013-08-22 07:21:00,73.0,72.7,29.01,NW,315,0.0,0.0,99,0.00,,,0.00,meteohub,2013-08-22 17:21:00,
2013-08-22 07:26:00,74.7,74.1,29.01,NW,315,0.0,0.0,98,0.00,,,0.00,meteohub,2013-08-22 17:26:00,
2013-08-22 07:31:00,76.3,75.0,29.01,NW,315,0.0,0.0,96,0.00,,,0.00,meteohub,2013-08-22 17:31:00,
2013-08-22 07:36:00,76.6,74.1,29.01,NW,315,0.0,0.0,92,0.00,,,0.00,meteohub,2013-08-22 17:36:00,
2013-08-22 07:41:00,78.4,75.6,29.02,NW,315,0.0,0.0,91,0.00,,,0.00,meteohub,2013-08-22 17:41:00,
2013-08-22 07:46:00,79.5,75.6,29.01,NW,315,0.0,0.0,88,0.00,,,0.00,meteohub,2013-08-22 17:46:00,
2013-08-22 07:52:00,79.5,72.1,29.02,North,0,0.0,3.0,78,0.00,,,0.00,meteohub,2013-08-22 17:52:00,
2013-08-22 07:57:00,79.7,72.1,29.02,North,0,3.0,3.0,78,0.00,,,0.00,meteohub,2013-08-22 17:57:00,
2013-08-22 08:02:00,79.2,72.5,29.03,North,-999,-999.0,3.0,80,0.00,,,0.00,meteohub,2013-08-22 18:02:00,
2013-08-22 08:07:00,79.2,72.9,29.02,North,-999,-999.0,3.0,81,0.00,,,0.00,meteohub,2013-08-22 18:07:00,
2013-08-22 08:12:00,79.2,73.2,29.02,NW,315,2.0,-999.0,82,0.00,,,0.00,meteohub,2013-08-22 18:12:00,
2013-08-22 08:17:00,79.2,73.2,29.03,NW,315,0.0,2.0,82,0.00,,,0.00,meteohub,2013-08-22 18:17:00,
2013-08-22 08:22:00,79.2,72.5,29.02,West,270,4.0,4.0,80,0.00,,,0.00,meteohub,2013-08-22 18:22:00,
2013-08-22 08:27:00,79.3,73.4,29.02,West,270,3.0,4.0,82,0.00,,,0.00,meteohub,2013-08-22 18:27:00,
2013-08-22 08:32:00,79.5,72.1,29.02,NW,315,4.0,4.0,78,0.00,,,0.00,meteohub,2013-08-22 18:32:00,
2013-08-22 08:37:00,79.3,72.0,29.02,NW,315,1.0,4.0,78,0.00,,,0.00,meteohub,2013-08-22 18:37:00,
2013-08-22 08:42:00,80.8,73.6,29.02,NW,315,2.0,4.0,79,0.00,,,0.00,meteohub,2013-08-22 18:42:00,
2013-08-22 08:47:00,81.7,73.8,29.02,SW,225,2.0,4.0,77,0.00,,,0.00,meteohub,2013-08-22 18:47:00,
2013-08-22 08:52:00,82.2,73.9,29.03,SW,225,2.0,4.0,76,0.00,,,0.00,meteohub,2013-08-22 18:52:00,
2013-08-22 08:57:00,82.0,72.5,29.02,SW,225,2.0,4.0,73,0.00,,,0.00,meteohub,2013-08-22 18:57:00,
2013-08-22 09:02:00,81.7,71.8,29.02,SW,225,4.0,4.0,72,0.00,,,0.00,meteohub,2013-08-22 19:02:00,
2013-08-22 09:07:00,81.7,71.8,29.02,SW,225,2.0,4.0,72,0.00,,,0.00,meteohub,2013-08-22 19:07:00,
2013-08-22 09:12:00,81.9,72.3,29.02,SW,225,4.0,4.0,73,0.00,,,0.00,meteohub,2013-08-22 19:12:00,
2013-08-22 09:17:00,82.2,72.7,29.02,SW,225,4.0,4.0,73,0.00,,,0.00,meteohub,2013-08-22 19:17:00,
2013-08-22 09:22:00,83.3,74.1,29.01,SW,225,4.0,4.0,74,0.00,,,0.00,meteohub,2013-08-22 19:22:00,
2013-08-22 09:27:00,83.3,74.1,29.01,SW,225,2.0,4.0,74,0.00,,,0.00,meteohub,2013-08-22 19:27:00,
2013-08-22 09:32:00,82.2,73.6,29.01,SW,225,2.0,4.0,75,0.00,,,0.00,meteohub,2013-08-22 19:32:00,
2013-08-22 09:37:00,80.6,72.7,29.02,SW,225,2.0,4.0,77,0.00,,,0.00,meteohub,2013-08-22 19:37:00,
2013-08-22 09:42:00,79.7,72.7,29.01,SW,225,2.0,2.0,79,0.00,,,0.00,meteohub,2013-08-22 19:42:00,
2013-08-22 09:47:00,80.1,73.0,29.01,SW,225,3.0,3.0,79,0.00,,,0.00,meteohub,2013-08-22 19:47:00,
2013-08-22 09:52:00,79.7,73.0,29.01,SW,225,2.0,3.0,80,0.00,,,0.00,meteohub,2013-08-22 19:52:00,
2013-08-22 09:57:00,79.9,74.3,29.01,West,270,5.0,5.0,83,0.00,,,0.00,meteohub,2013-08-22 19:57:00,
2013-08-22 10:02:00,79.2,74.3,29.01,NW,315,4.0,6.0,85,0.00,,,0.00,meteohub,2013-08-22 20:02:00,
2013-08-22 10:07:00,79.2,74.7,29.01,West,270,3.0,6.0,86,0.00,,,0.00,meteohub,2013-08-22 20:07:00,
2013-08-22 10:12:00,79.0,74.5,29.01,NW,315,4.0,6.0,86,0.00,,,0.00,meteohub,2013-08-22 20:12:00,
2013-08-22 10:17:00,78.3,74.1,29.01,West,270,4.0,6.0,87,0.00,,,0.00,meteohub,2013-08-22 20:17:00,
2013-08-22 10:22:00,78.1,74.3,29.01,West,270,3.0,6.0,88,0.00,,,0.00,meteohub,2013-08-22 20:22:00,
2013-08-22 10:27:00,77.7,74.3,29.01,West,270,2.0,4.0,89,0.00,,,0.00,meteohub,2013-08-22 20:27:00,
2013-08-22 10:32:00,77.9,74.5,29.01,NW,315,3.0,4.0,89,0.00,,,0.00,meteohub,2013-08-22 20:32:00,
2013-08-22 10:37:00,78.1,74.5,29.00,West,270,4.0,4.0,89,0.00,,,0.00,meteohub,2013-08-22 20:37:00,
2013-08-22 10:42:00,77.9,75.0,29.00,NW,315,4.0,4.0,91,0.00,,,0.00,meteohub,2013-08-22 20:42:00,
2013-08-22 10:47:00,78.1,75.2,29.00,NW,315,3.0,4.0,91,0.00,,,0.00,meteohub,2013-08-22 20:47:00,
2013-08-22 10:52:00,78.3,74.7,29.00,West,270,2.0,4.0,89,0.00,,,0.00,meteohub,2013-08-22 20:52:00,
2013-08-22 10:57:00,78.3,75.0,29.00,NW,315,2.0,4.0,90,0.00,,,0.00,meteohub,2013-08-22 20:57:00,
2013-08-22 11:02:00,78.8,75.6,29.00,West,270,3.0,5.0,90,0.00,,,0.00,meteohub,2013-08-22 21:02:00,
2013-08-22 11:07:00,78.4,74.8,29.00,West,270,5.0,5.0,89,0.00,,,0.00,meteohub,2013-08-22 21:07:00,
2013-08-22 11:12:00,77.9,75.0,29.00,NW,315,3.0,6.0,91,0.00,,,0.00,meteohub,2013-08-22 21:12:00,
2013-08-22 11:17:00,78.3,75.4,29.00,SW,225,4.0,6.0,91,0.00,,,0.00,meteohub,2013-08-22 21:17:00,
2013-08-22 11:22:00,78.6,75.4,28.99,NW,315,3.0,6.0,90,0.00,,,0.00,meteohub,2013-08-22 21:22:00,
2013-08-22 11:27:00,79.2,75.4,28.99,West,270,3.0,6.0,88,0.00,,,0.00,meteohub,2013-08-22 21:27:00,
2013-08-22 11:32:00,79.0,75.2,28.99,West,270,4.0,5.0,88,0.00,,,0.00,meteohub,2013-08-22 21:32:00,
2013-08-22 11:37:00,78.4,74.7,29.00,West,270,3.0,4.0,88,0.00,,,0.00,meteohub,2013-08-22 21:37:00,
2013-08-22 11:42:00,78.6,74.8,28.99,West,270,5.0,5.0,88,0.00,,,0.00,meteohub,2013-08-22 21:42:00,
2013-08-22 11:47:00,78.6,74.5,28.99,West,270,4.0,5.0,87,0.00,,,0.00,meteohub,2013-08-22 21:47:00,
2013-08-22 11:52:00,78.4,74.3,28.99,West,270,2.0,5.0,87,0.00,,,0.00,meteohub,2013-08-22 21:52:00,
2013-08-22 11:57:00,78.4,74.3,28.99,NW,315,3.0,5.0,87,0.00,,,0.00,meteohub,2013-08-22 21:57:00,
2013-08-22 12:02:00,78.4,73.9,28.99,West,270,4.0,6.0,86,0.00,,,0.00,meteohub,2013-08-22 22:02:00,
2013-08-22 12:07:00,78.3,74.5,28.99,West,270,5.0,7.0,88,0.00,,,0.00,meteohub,2013-08-22 22:07:00,
2013-08-22 12:12:00,78.1,74.8,28.99,West,270,3.0,7.0,90,0.00,,,0.00,meteohub,2013-08-22 22:12:00,
2013-08-22 12:17:00,77.9,74.5,28.98,NW,315,4.0,7.0,89,0.00,,,0.00,meteohub,2013-08-22 22:17:00,
2013-08-22 12:22:00,78.3,74.5,28.98,NW,315,2.0,7.0,88,0.00,,,0.00,meteohub,2013-08-22 22:22:00,
2013-08-22 12:27:00,78.6,74.8,28.98,West,270,4.0,4.0,88,0.00,,,0.00,meteohub,2013-08-22 22:27:00,
2013-08-22 12:32:00,78.4,74.7,28.97,West,270,4.0,4.0,88,0.00,,,0.00,meteohub,2013-08-22 22:32:00,
2013-08-22 12:37:00,78.4,74.8,28.98,West,270,4.0,4.0,89,0.00,,,0.00,meteohub,2013-08-22 22:37:00,
2013-08-22 12:42:00,78.3,74.7,28.97,NW,315,2.0,4.0,89,0.00,,,0.00,meteohub,2013-08-22 22:42:00,
2013-08-22 12:47:00,77.9,74.7,28.97,West,270,4.0,5.0,90,0.00,,,0.00,meteohub,2013-08-22 22:47:00,
2013-08-22 12:52:00,77.4,74.5,28.97,NW,315,3.0,6.0,91,0.00,,,0.00,meteohub,2013-08-22 22:52:00,
2013-08-22 12:57:00,77.2,74.7,28.97,West,270,2.0,6.0,92,0.00,,,0.00,meteohub,2013-08-22 22:57:00,
2013-08-22 13:02:00,76.8,74.7,28.97,NW,315,2.0,6.0,93,0.00,,,0.00,meteohub,2013-08-22 23:02:00,
2013-08-22 13:07:00,76.6,74.8,28.97,West,270,4.0,4.0,94,0.00,,,0.00,meteohub,2013-08-22 23:07:00,
2013-08-22 13:12:00,76.1,74.3,28.97,West,270,2.0,5.0,94,0.00,,,0.00,meteohub,2013-08-22 23:12:00,
2013-08-22 13:17:00,75.6,74.3,28.97,West,270,2.0,5.0,96,0.00,,,0.00,meteohub,2013-08-22 23:17:00,
2013-08-22 13:22:00,75.4,74.8,28.97,NW,315,1.0,7.0,98,0.00,,,0.00,meteohub,2013-08-22 23:22:00,
2013-08-22 13:27:00,75.0,74.7,28.97,West,270,4.0,7.0,99,0.00,,,0.00,meteohub,2013-08-22 23:27:00,
2013-08-22 13:32:00,74.7,74.3,28.97,West,270,8.0,8.0,99,0.00,,,0.00,meteohub,2013-08-22 23:32:00,
2013-08-22 13:37:00,74.3,73.9,28.97,NW,315,2.0,8.0,99,0.00,,,0.00,meteohub,2013-08-22 23:37:00,
2013-08-22 13:42:00,74.1,73.8,28.96,West,270,5.0,8.0,99,0.00,,,0.00,meteohub,2013-08-22 23:42:00,
2013-08-22 13:47:00,73.9,73.6,28.97,West,270,2.0,8.0,99,0.00,,,0.00,meteohub,2013-08-22 23:47:00,
2013-08-22 13:52:00,73.9,73.6,28.96,West,270,2.0,5.0,99,0.00,,,0.00,meteohub,2013-08-22 23:52:00,
2013-08-22 13:57:00,73.8,73.4,28.96,NW,315,2.0,5.0,99,0.00,,,0.00,meteohub,2013-08-22 23:57:00,
2013-08-22 14:02:00,73.8,73.4,28.96,NW,315,2.0,4.0,99,0.00,,,0.00,meteohub,2013-08-23 00:02:00,
2013-08-22 14:07:00,73.6,73.2,28.97,West,270,2.0,4.0,99,0.00,,,0.00,meteohub,2013-08-23 00:07:00,
2013-08-22 14:12:00,73.4,73.0,28.96,NW,315,2.0,3.0,99,0.00,,,0.00,meteohub,2013-08-23 00:12:00,
2013-08-22 14:17:00,73.4,73.0,28.96,West,270,2.0,4.0,99,0.00,,,0.00,meteohub,2013-08-23 00:17:00,
2013-08-22 14:22:00,73.2,72.9,28.96,West,270,2.0,4.0,99,0.00,,,0.00,meteohub,2013-08-23 00:22:00,
2013-08-22 14:27:00,73.0,72.7,28.96,West,270,4.0,4.0,99,0.00,,,0.00,meteohub,2013-08-23 00:27:00,
2013-08-22 14:32:00,72.9,72.5,28.96,NW,315,2.0,4.0,99,0.00,,,0.00,meteohub,2013-08-23 00:32:00,
2013-08-22 14:37:00,72.9,72.5,28.96,West,270,3.0,4.0,99,0.00,,,0.00,meteohub,2013-08-23 00:37:00,
2013-08-22 14:42:00,72.9,72.5,28.95,West,270,2.0,4.0,99,0.00,,,0.00,meteohub,2013-08-23 00:42:00,
2013-08-22 14:47:00,72.7,72.3,28.95,NW,315,2.0,4.0,99,0.00,,,0.00,meteohub,2013-08-23 00:47:00,
2013-08-22 14:52:00,72.7,72.3,28.95,NW,315,2.0,3.0,99,0.00,,,0.00,meteohub,2013-08-23 00:52:00,
2013-08-22 14:57:00,72.7,72.3,28.95,NW,315,0.0,3.0,99,0.00,,,0.00,meteohub,2013-08-23 00:57:00,
2013-08-22 15:02:00,72.9,72.5,28.95,NW,315,0.0,3.0,99,0.00,,,0.00,meteohub,2013-08-23 01:02:00,
2013-08-22 15:07:00,72.7,72.3,28.95,NW,315,1.0,2.0,99,0.00,,,0.00,meteohub,2013-08-23 01:07:00,
2013-08-22 15:12:00,72.7,72.3,28.95,NW,315,0.0,2.0,99,0.00,,,0.00,meteohub,2013-08-23 01:12:00,
2013-08-22 15:17:00,72.7,72.3,28.95,NW,315,0.0,2.0,99,0.00,,,0.00,meteohub,2013-08-23 01:17:00,
2013-08-22 15:22:00,72.9,72.5,28.95,NW,315,1.0,2.0,99,0.00,,,0.00,meteohub,2013-08-23 01:22:00,
2013-08-22 15:27:00,72.7,72.3,28.95,NW,315,0.0,2.0,99,0.00,,,0.00,meteohub,2013-08-23 01:27:00,
2013-08-22 15:32:00,72.7,72.3,28.95,NW,315,0.0,2.0,99,0.00,,,0.00,meteohub,2013-08-23 01:32:00,
2013-08-22 15:37:00,72.9,72.5,28.95,NW,315,1.0,2.0,99,0.00,,,0.00,meteohub,2013-08-23 01:37:00,
2013-08-22 15:42:00,72.9,72.5,28.95,NW,315,1.0,2.0,99,0.01,,,0.01,meteohub,2013-08-23 01:42:00,
2013-08-22 15:47:00,72.9,72.5,28.95,NW,315,0.0,2.0,99,0.01,,,0.01,meteohub,2013-08-23 01:47:00,
2013-08-22 15:52:00,72.9,72.5,28.95,NW,315,0.0,2.0,99,0.01,,,0.01,meteohub,2013-08-23 01:52:00,
2013-08-22 15:57:00,72.7,72.3,28.95,NW,315,0.0,2.0,99,0.01,,,0.01,meteohub,2013-08-23 01:57:00,
2013-08-22 16:02:00,72.9,72.5,28.95,NW,315,0.0,2.0,99,0.01,,,0.01,meteohub,2013-08-23 02:02:00,
2013-08-22 16:07:00,72.9,72.5,28.95,NW,315,0.0,2.0,99,0.01,,,0.01,meteohub,2013-08-23 02:07:00,
2013-08-22 16:12:00,72.7,72.3,28.95,NW,315,0.0,0.0,99,0.01,,,0.01,meteohub,2013-08-23 02:12:00,
2013-08-22 16:17:00,72.5,72.1,28.95,NW,315,0.0,0.0,99,0.01,,,0.01,meteohub,2013-08-23 02:17:00,
2013-08-22 16:22:00,72.5,72.1,28.95,NW,315,0.0,0.0,99,0.01,,,0.01,meteohub,2013-08-23 02:22:00,
2013-08-22 16:27:00,72.5,72.1,28.95,NW,315,0.0,0.0,99,0.01,,,0.01,meteohub,2013-08-23 02:27:00,
2013-08-22 16:32:00,72.5,72.1,28.95,NW,315,0.0,0.0,99,0.01,,,0.01,meteohub,2013-08-23 02:32:00,
2013-08-22 16:37:00,72.5,72.1,28.95,NW,315,0.0,0.0,99,0.01,,,0.01,meteohub,2013-08-23 02:37:00,
2013-08-22 16:42:00,72.3,72.0,28.95,NW,315,0.0,0.0,99,0.00,,,0.01,meteohub,2013-08-23 02:42:00,
2013-08-22 16:47:00,72.3,72.0,28.95,NW,315,0.0,0.0,99,0.00,,,0.01,meteohub,2013-08-23 02:47:00,
2013-08-22 16:52:00,72.3,72.0,28.95,NW,315,0.0,0.0,99,0.00,,,0.01,meteohub,2013-08-23 02:52:00,
2013-08-22 16:57:00,72.3,72.0,28.95,NW,315,0.0,0.0,99,0.00,,,0.01,meteohub,2013-08-23 02:57:00,
2013-08-22 17:02:00,72.3,72.0,28.95,NW,315,0.0,0.0,99,0.00,,,0.01,meteohub,2013-08-23 03:02:00,
2013-08-22 17:07:00,72.1,71.8,28.96,NW,315,2.0,2.0,99,0.00,,,0.01,meteohub,2013-08-23 03:07:00,
2013-08-22 17:12:00,71.8,71.4,28.95,NW,315,1.0,2.0,99,0.00,,,0.01,meteohub,2013-08-23 03:12:00,
2013-08-22 17:17:00,71.6,71.2,28.95,NW,315,0.0,2.0,99,0.00,,,0.01,meteohub,2013-08-23 03:17:00,
2013-08-22 17:22:00,71.4,71.1,28.96,NW,315,0.0,2.0,99,0.00,,,0.01,meteohub,2013-08-23 03:22:00,
2013-08-22 17:27:00,71.4,71.1,28.96,NW,315,2.0,2.0,99,0.01,,,0.02,meteohub,2013-08-23 03:27:00,
2013-08-22 17:32:00,71.2,70.9,28.96,SW,225,1.0,3.0,99,0.01,,,0.02,meteohub,2013-08-23 03:32:00,
2013-08-22 17:37:00,71.2,70.9,28.96,SW,225,0.0,3.0,99,0.01,,,0.02,meteohub,2013-08-23 03:37:00,
2013-08-22 17:42:00,71.1,70.7,28.96,SW,225,0.0,3.0,99,0.02,,,0.04,meteohub,2013-08-23 03:42:00,
2013-08-22 17:47:00,71.1,70.7,28.96,SW,225,1.0,2.0,99,0.02,,,0.04,meteohub,2013-08-23 03:47:00,
2013-08-22 17:52:00,70.9,70.5,28.97,SW,225,0.0,1.0,99,0.02,,,0.04,meteohub,2013-08-23 03:52:00,
2013-08-22 17:56:00,70.9,70.5,28.97,SW,225,0.0,1.0,99,0.02,,,0.04,meteohub,2013-08-23 03:56:00,
2013-08-22 18:01:00,70.9,70.5,28.97,SW,225,2.0,2.0,99,0.02,,,0.04,meteohub,2013-08-23 04:01:00,
2013-08-22 18:07:00,70.9,70.5,28.97,SW,225,0.0,2.0,99,0.02,,,0.04,meteohub,2013-08-23 04:07:00,
2013-08-22 18:12:00,70.9,70.5,28.97,SW,225,0.0,2.0,99,0.02,,,0.04,meteohub,2013-08-23 04:12:00,
2013-08-22 18:17:00,70.9,70.5,28.97,SW,225,0.0,2.0,99,0.04,,,0.05,meteohub,2013-08-23 04:17:00,
2013-08-22 18:22:00,70.9,70.5,28.97,SW,225,0.0,0.0,99,0.02,,,0.05,meteohub,2013-08-23 04:22:00,
2013-08-22 18:27:00,70.9,70.5,28.97,SW,225,0.0,0.0,99,0.02,,,0.05,meteohub,2013-08-23 04:27:00,
2013-08-22 18:32:00,70.9,70.5,28.97,SW,225,0.0,0.0,99,0.02,,,0.05,meteohub,2013-08-23 04:32:00,
2013-08-22 18:37:00,70.9,70.5,28.98,SW,225,0.0,0.0,99,0.02,,,0.05,meteohub,2013-08-23 04:37:00,
2013-08-22 18:42:00,71.1,70.7,28.97,SW,225,0.0,0.0,99,0.01,,,0.05,meteohub,2013-08-23 04:42:00,
2013-08-22 18:47:00,71.1,70.7,28.98,SW,225,0.0,0.0,99,0.01,,,0.05,meteohub,2013-08-23 04:47:00,
2013-08-22 18:52:00,71.1,70.7,28.99,SW,225,0.0,0.0,99,0.01,,,0.05,meteohub,2013-08-23 04:52:00,
2013-08-22 18:57:00,71.1,70.7,28.98,SW,225,0.0,0.0,99,0.01,,,0.05,meteohub,2013-08-23 04:57:00,
2013-08-22 19:02:00,71.1,70.7,28.98,SW,225,0.0,0.0,99,0.01,,,0.05,meteohub,2013-08-23 05:02:00,
2013-08-22 19:07:00,71.1,70.7,28.98,SW,225,1.0,0.0,99,0.01,,,0.05,meteohub,2013-08-23 05:07:00,
2013-08-22 19:12:00,71.1,70.7,28.99,SW,225,0.0,1.0,99,0.00,,,0.05,meteohub,2013-08-23 05:12:00,
2013-08-22 19:17:00,70.9,70.5,28.99,SW,225,0.0,1.0,99,0.00,,,0.05,meteohub,2013-08-23 05:17:00,
2013-08-22 19:22:00,70.9,70.5,28.99,SW,225,0.0,1.0,99,0.01,,,0.06,meteohub,2013-08-23 05:22:00,
2013-08-22 19:27:00,70.9,70.5,29.00,SW,225,0.0,0.0,99,0.01,,,0.06,meteohub,2013-08-23 05:27:00,
2013-08-22 19:32:00,70.9,70.5,29.00,SW,225,0.0,0.0,99,0.01,,,0.06,meteohub,2013-08-23 05:32:00,
2013-08-22 19:37:00,70.9,70.5,29.00,SW,225,0.0,0.0,99,0.01,,,0.06,meteohub,2013-08-23 05:37:00,
2013-08-22 19:42:00,70.9,70.5,29.00,SW,225,0.0,0.0,99,0.01,,,0.06,meteohub,2013-08-23 05:42:00,
2013-08-22 19:47:00,70.9,70.5,29.00,SW,225,0.0,0.0,99,0.01,,,0.06,meteohub,2013-08-23 05:47:00,
2013-08-22 19:52:00,70.7,70.3,29.00,SW,225,0.0,0.0,99,0.01,,,0.06,meteohub,2013-08-23 05:52:00,
2013-08-22 19:57:00,70.7,70.3,29.00,SW,225,0.0,0.0,99,0.01,,,0.06,meteohub,2013-08-23 05:57:00,
2013-08-22 20:02:00,70.7,70.3,29.00,SW,225,0.0,0.0,99,0.01,,,0.06,meteohub,2013-08-23 06:02:00,
2013-08-22 20:07:00,70.7,70.3,29.00,SW,225,0.0,0.0,99,0.01,,,0.06,meteohub,2013-08-23 06:07:00,
2013-08-22 20:12:00,70.5,70.2,29.00,SW,225,0.0,0.0,99,0.01,,,0.06,meteohub,2013-08-23 06:12:00,
2013-08-22 20:17:00,70.5,70.2,29.00,SW,225,0.0,0.0,99,0.00,,,0.06,meteohub,2013-08-23 06:17:00,
2013-08-22 20:22:00,70.5,70.2,29.01,SW,225,0.0,0.0,99,0.00,,,0.06,meteohub,2013-08-23 06:22:00,
2013-08-22 20:27:00,70.5,70.2,29.01,SW,225,0.0,0.0,99,0.00,,,0.06,meteohub,2013-08-23 06:27:00,
2013-08-22 20:32:00,70.3,70.0,29.01,SW,225,0.0,0.0,99,0.00,,,0.06,meteohub,2013-08-23 06:32:00,
2013-08-22 20:37:00,70.3,70.0,29.01,SW,225,0.0,0.0,99,0.00,,,0.06,meteohub,2013-08-23 06:37:00,
2013-08-22 20:42:00,70.3,70.0,29.02,SW,225,0.0,0.0,99,0.00,,,0.06,meteohub,2013-08-23 06:42:00,
2013-08-22 20:47:00,70.3,70.0,29.02,SW,225,0.0,0.0,99,0.00,,,0.06,meteohub,2013-08-23 06:47:00,
2013-08-22 20:52:00,70.2,69.8,29.02,SW,225,0.0,0.0,99,0.00,,,0.06,meteohub,2013-08-23 06:52:00,
2013-08-22 20:57:00,70.2,69.8,29.02,SW,225,0.0,0.0,99,0.00,,,0.06,meteohub,2013-08-23 06:57:00,
2013-08-22 21:02:00,70.2,69.8,29.02,SW,225,0.0,0.0,99,0.00,,,0.06,meteohub,2013-08-23 07:02:00,
2013-08-22 21:07:00,70.0,69.6,29.02,SW,225,0.0,0.0,99,0.00,,,0.06,meteohub,2013-08-23 07:07:00,
2013-08-22 21:12:00,70.0,69.6,29.02,SW,225,0.0,0.0,99,0.00,,,0.06,meteohub,2013-08-23 07:12:00,
2013-08-22 21:17:00,70.0,69.6,29.02,SW,225,0.0,0.0,99,0.00,,,0.06,meteohub,2013-08-23 07:17:00,
2013-08-22 21:22:00,70.0,69.6,29.03,SW,225,0.0,0.0,99,0.00,,,0.06,meteohub,2013-08-23 07:22:00,
2013-08-22 21:27:00,70.0,69.6,29.02,SW,225,0.0,0.0,99,0.00,,,0.06,meteohub,2013-08-23 07:27:00,
2013-08-22 21:32:00,70.0,69.6,29.02,SW,225,0.0,0.0,99,0.00,,,0.06,meteohub,2013-08-23 07:32:00,
2013-08-22 21:37:00,69.8,69.4,29.03,SW,225,0.0,0.0,99,0.00,,,0.06,meteohub,2013-08-23 07:37:00,
2013-08-22 21:42:00,69.8,69.4,29.03,SW,225,0.0,0.0,99,0.00,,,0.06,meteohub,2013-08-23 07:42:00,
2013-08-22 21:47:00,69.8,69.4,29.03,SW,225,0.0,0.0,99,0.00,,,0.06,meteohub,2013-08-23 07:47:00,
2013-08-22 21:52:00,69.8,69.4,29.03,SW,225,0.0,0.0,99,0.00,,,0.06,meteohub,2013-08-23 07:52:00,
2013-08-22 21:57:00,70.0,69.6,29.03,SW,225,0.0,0.0,99,0.00,,,0.06,meteohub,2013-08-23 07:57:00,
2013-08-22 22:02:00,69.8,69.4,29.03,SW,225,0.0,0.0,99,0.00,,,0.06,meteohub,2013-08-23 08:02:00,
2013-08-22 22:07:00,69.8,69.4,29.03,SW,225,0.0,0.0,99,0.00,,,0.06,meteohub,2013-08-23 08:07:00,
2013-08-22 22:12:00,69.8,69.4,29.04,SW,225,0.0,0.0,99,0.00,,,0.06,meteohub,2013-08-23 08:12:00,
2013-08-22 22:17:00,69.8,69.4,29.04,SW,225,0.0,0.0,99,0.00,,,0.06,meteohub,2013-08-23 08:17:00,
2013-08-22 22:22:00,69.8,69.4,29.04,SW,225,0.0,0.0,99,0.00,,,0.06,meteohub,2013-08-23 08:22:00,
2013-08-22 22:27:00,69.8,69.4,29.05,SW,225,0.0,0.0,99,0.00,,,0.06,meteohub,2013-08-23 08:27:00,
2013-08-22 22:32:00,69.8,69.4,29.04,SW,225,0.0,0.0,99,0.00,,,0.06,meteohub,2013-08-23 08:32:00,
2013-08-22 22:37:00,70.0,69.6,29.04,SW,225,0.0,0.0,99,0.00,,,0.06,meteohub,2013-08-23 08:37:00,
2013-08-22 22:42:00,70.0,69.6,29.04,SW,225,0.0,0.0,99,0.00,,,0.06,meteohub,2013-08-23 08:42:00,
2013-08-22 22:47:00,70.0,69.6,29.04,SW,225,0.0,0.0,99,0.00,,,0.06,meteohub,2013-08-23 08:47:00,
2013-08-22 22:52:00,70.0,69.6,29.03,SW,225,0.0,0.0,99,0.00,,,0.06,meteohub,2013-08-23 08:52:00,
2013-08-22 22:57:00,69.8,69.4,29.04,SW,225,0.0,0.0,99,0.00,,,0.06,meteohub,2013-08-23 08:57:00,
2013-08-22 23:02:00,69.8,69.4,29.03,SW,225,0.0,0.0,99,0.00,,,0.06,meteohub,2013-08-23 09:02:00,
2013-08-22 23:07:00,69.8,69.4,29.03,SW,225,0.0,0.0,99,0.00,,,0.06,meteohub,2013-08-23 09:07:00,
2013-08-22 23:12:00,69.8,69.4,29.03,SW,225,0.0,0.0,99,0.00,,,0.06,meteohub,2013-08-23 09:12:00,
2013-08-22 23:17:00,69.8,69.4,29.03,SW,225,0.0,0.0,99,0.01,,,0.07,meteohub,2013-08-23 09:17:00,
2013-08-22 23:22:00,69.8,69.4,29.03,SW,225,0.0,0.0,99,0.01,,,0.07,meteohub,2013-08-23 09:22:00,
2013-08-22 23:27:00,69.8,69.4,29.03,SW,225,0.0,0.0,99,0.01,,,0.07,meteohub,2013-08-23 09:27:00,
2013-08-22 23:32:00,69.8,69.4,29.03,SW,225,0.0,0.0,99,0.01,,,0.07,meteohub,2013-08-23 09:32:00,
2013-08-22 23:37:00,69.8,69.4,29.03,SW,225,0.0,0.0,99,0.01,,,0.07,meteohub,2013-08-23 09:37:00,
2013-08-22 23:42:00,69.8,69.4,29.03,SW,225,0.0,0.0,99,0.01,,,0.07,meteohub,2013-08-23 09:42:00,
2013-08-22 23:47:00,70.0,69.6,29.03,SW,225,0.0,0.0,99,0.01,,,0.07,meteohub,2013-08-23 09:47:00,
2013-08-22 23:52:00,70.0,69.6,29.02,SW,225,0.0,0.0,99,0.01,,,0.07,meteohub,2013-08-23 09:52:00,
2013-08-22 23:57:00,70.0,69.6,29.02,SW,225,0.0,0.0,99,0.01,,,0.07,meteohub,2013-08-23 09:57:00,